Location: Churchill Northern Studies Centre
(58.7378°N, 93.8201°W)
Time: 04:18:54
(UTC-05:00)

Envisat - Pass Details

Date: 12 October 2017
Orbit: 764 x 766 km, 98.2° (Epoch: 23 October)

Event Time Altitude Azimuth Distance (km) Brightness Sun altitude
Exits shadow 18:53:44 - 113° (ESE) 2,944 5.5 -5.6°
Reaches altitude 10° 18:55:37 10° 103° (ESE) 2,309 4.9 -5.9°
Maximum altitude 18:59:37 24° 51° (NE) 1,554 4.2 -6.4°
Drops below altitude 10° 19:03:38 10° 359° (N) 2,318 5.5 -6.9°
Sets 19:06:18 0° 346° (NNW) 3,248 6.4 -7.2°
